sat.trackr.live / text

‹ back to catalog

SHIJIAN-16 (SJ-16)

NORAD 39358 · 2013-057A

PAYLOAD ACTIVE UNKNOWN

§ Identity

Operator
Country
PRC
Launch date
2013-10-25
Launch site
JSC
Launch vehicle
Mass (kg)
RCS (m²)
8.27

External: N2YO · Heavens-Above · Gunter

§ Orbital elements

Epoch: 2026-05-25T04:21:34.458912Z

Period
96.48 min
Inclination
74.9736°
Eccentricity
0.0016923
Mean motion
14.92541803 rev/d
Perigee alt
578.2 km
Apogee alt
601.8 km
Semi-major
6,968.2 km
B*
6.5063e-5
RAAN
40.2536°
Arg perigee
283.7164°
Mean anomaly
76.2140°
Rev number
68,291

§ Raw data

SHIJIAN-16 (SJ-16)1 39358U 13057A   26145.18164883  .00000640  00000+0  65063-4 0  99942 39358  74.9736  40.2536 0016923 283.7164  76.2140 14.92541803682911

JSON: /api/v1/satellites/39358 · /tle

For live sub-satellite position, see the globe view (requires WebGL).

§ Visibility from observer

Set your observer location to see the next 7 days of passes ≥ 10°. The values pass through the URL so the page stays shareable.

No JS? Fill the form by hand. The geolocation button needs JavaScript.